This demonstration page uses our WeatherBlox Daily Observations layout. Learn more.

Left ArrowRight Arrow

Hourly Observations for November 24, 2015

Temp ( °F °C ) Dew Point ( °F °C ) Humidity (%) Winds ( mph kmh ) Pressure ( in mb ) Visibility ( mi km ) Precip ( " mm )
12:53 am 00:53 Clear 41 5 30 -1.1 65 65 SSE 9 15 29.97 1015 10 16 0.00 0.00
1:53 am 01:53 Clear 40 4.4 30 -1.1 68 68 SSE 10 17 29.95 1014 10 16 0.00 0.00
2:53 am 02:53 Clear 39 3.9 30 -1.1 70 70 SSE 9 15 29.94 1014 10 16 0.00 0.00
3:53 am 03:53 Clear 38 3.3 29 -1.7 70 70 S 8 13 29.93 1014 10 16 0.00 0.00
4:53 am 04:53 Clear 36 2.2 28 -2.2 73 73 S 6 9 29.94 1014 10 16 0.00 0.00
5:53 am 05:53 Clear 37 2.8 28 -2.2 70 70 SSE 9 15 29.93 1014 10 16 0.00 0.00
6:53 am 06:53 Clear 35 1.7 28 -2.2 76 76 SSE 9 15 29.94 1014 10 16 0.00 0.00
7:53 am 07:53 Sunny 34 1.1 27 -2.8 76 76 SSE 10 17 29.93 1014 10 16 0.00 0.00
8:53 am 08:53 Sunny 37 2.8 29 -1.7 73 73 S 9 15 29.94 1014 10 16 0.00 0.00
9:53 am 09:53 Sunny 43 6.1 31 -0.6 63 63 S 13 20 29.93 1014 10 16 0.00 0.00
10:53 am 10:53 Sunny 46 7.8 32 0 58 58 S 12 19 29.91 1013 10 16 0.00 0.00
11:53 am 11:53 Sunny 48 8.9 32 0 54 54 SSE 12 19 29.88 1012 10 16 0.00 0.00
12:53 pm 12:53 Sunny 50 10 33 0.6 52 52 S 7 11 29.85 1011 10 16 0.00 0.00
1:53 pm 13:53 Sunny 52 11.1 34 1.1 50 50 SSE 12 19 29.83 1010 9 14 0.00 0.00
2:53 pm 14:53 Sunny 53 11.7 34 1.1 48 48 S 13 20 29.83 1010 10 16 0.00 0.00
3:53 pm 15:53 Sunny 52 11.1 34 1.1 50 50 S 9 15 29.83 1010 10 16 0.00 0.00
4:53 pm 16:53 Sunny 50 10 34 1.1 54 54 S 9 15 29.83 1010 10 16 0.00 0.00
5:53 pm 17:53 Clear 45 7.2 33 0.6 63 63 SSE 3 6 29.85 1011 10 16 0.00 0.00
6:53 pm 18:53 Clear 44 6.7 33 0.6 65 65 SSE 3 6 29.86 1011 10 16 0.00 0.00
7:53 pm 19:53 Clear 43 6.1 33 0.6 68 68 SSE 5 7 29.86 1011 10 16 0.00 0.00
8:53 pm 20:53 Clear 42 5.6 33 0.6 71 71 S 5 7 29.84 1011 10 16 0.00 0.00
9:53 pm 21:53 Clear 42 5.6 34 1.1 73 73 SSE 7 11 29.83 1010 10 16 0.00 0.00
10:53 pm 22:53 Clear 41 5 34 1.1 76 76 SSE 7 11 29.82 1010 10 16 0.00 0.00
11:53 pm 23:53 Clear 39 3.9 35 1.7 86 86 S 9 15 29.81 1010 10 16 0.00 0.00

Powered by AerisWeather